Volver al catálogo

THORAD AGENA D DEB

ActivoPO
NORAD 4868·DEBRIS·🇺🇸 United States

Lanzado Apr 8, 1970 desde Vandenberg Space Force Base

Loading…

Próximos Pases (próximas 24 horas)

TLE

ActualizadoSource: Space-Track

Época: Sep 13, 2026, 17:06 UTC

1 04868U 70025EY  26256.71313780  .00001041  00000-0  70995-3 0  9990
2 04868  99.7161 334.5653 0056101 179.9977 180.1195 14.01631422847617

Sigue THORAD AGENA D DEB en tiempo real con AllMySat

Download on the App Store